COSMOS 1479

Satellite information

Favourite Embed

Satellite Type and Status

PAYLOADIN ORBIT

Key statistics

Satellite COSMOS 1479 at a glance.

Uptime

15457

Days in orbit

Revolutions

≈ 12.5

Per day

Orbit

LEO

Low Earth Orbit

Inclination

74.0

Latest

Satellite identification and parameters

Extended collection of information and parameters for COSMOS 1479.

Object identification

Identified? True

Debris? False

Object name: COSMOS 1479

International designator: 1983-069G

Object number (NORAD): 14177

Object ID (CCSDS): 14177

Country: COMMONWEALTH OF INDEPENDENT STATES (CIS)

Current information (Y/N): Y

RCS size: MEDIUM

Orbital parameters

Period: 115.561 minutes

Inclination: 74.0259 deg

SMA: 7858.986 km

Apoapsis: 1499.782 km

Periapsis: 1461.92 km

RAAN: 67.0162 deg

Eccentricy: 0.00240882

Argument of periapsis: 265.1759 deg

Mean anomaly: 249.394 deg

Mean motion: 12.46100356 rev/day

Mean motion (dot): 0.00000004 rev/day2

B* drag term: 0.00013486865 1/REarth

Two-line elements (TLE)

Creation date: Oct. 30, 2025, 3:32 a.m.

Reference frame: TEME

Reference center: EARTH

Epoch: Oct. 29, 2025, 7:27 p.m. UTC

TLE line 0: 0 COSMOS 1479

TLE line 1: 1 14177U 83069G 25302.81084385 .00000004 00000-0 13487-3 0 9995

TLE line 2: 2 14177 74.0259 67.0162 0024088 265.1759 249.3940 12.46100356925003

Live tracking on map

Real-time ground track for satellite COSMOS 1479.

In-orbit conjunctions

A list of the most updated potential collisions computed for object COSMOS 1479.

Target Orbit TCA Probability of collision Miss distance Type
COSMOS 2499 DEB LEO 2025-07-03 08:18:07 0.0001156771 690.0 (m) DEBRIS
THORAD DELTA 1 DEB SSO 2024-11-18 22:13:00 0.0001157385 223.0 (m) DEBRIS
DELTA 1 DEB SSO 2024-06-21 05:54:34 0.0001193902 199.0 (m) DEBRIS

Associated space launch

Military communications satellites

COSMOS 1479 was lifted into orbit during the mission ‘Kosmos-3M | Strela-1M 265-272’, on board a Kosmos-3M space rocket.

The launch took place on July 6, 1983, 12:31 a.m. from 132/2.

For more information about the launch, click the button.

Launch to space Kosmos-3M | Strela-1M 265-272
Kosmos-3M | Strela-1M 265-272

Agency: N/A

Status: Launch Successful

Launch date: July 6, 1983, 12:31 a.m. UTC

Rocket: Kosmos-3M

Launch pad: 132/2

Location: Plesetsk Cosmodrome, Russian Federation

...

Latest news about this satellite

There are no fresh news available about this satellite. Check back as we update our databases every day.


Newsletter sign-up

Weekly statistics, charts and insights to help you stay on top of the space industry.